BG8JUN-2 Weather Reports


Display with metric or nautical units.
time (UTC)temp
F
wind
direction
speed
MPH
gust
MPH
rain 1hr
in
rain 24hr
in
rain mn
in
humidity
%
barometer
mb
20221208134525 51 345 2.0 9.0 0.00 0.00 0.00 74 991.0
20221208124503 51 287 3.0 9.0 0.00 0.00 0.00 73 991.0
20221208114443 51 95 1.0 9.0 0.00 0.00 0.00 73 989.0
20221208104423 51 154 1.0 9.0 0.00 0.00 0.00 70 989.0
20221208094403 53 43 3.0 9.0 0.00 0.00 0.00 67 989.0
20221208084343 53 45 5.0 9.0 0.00 0.00 0.00 61 989.0
20221208074323 53 177 1.0 9.0 0.00 0.00 0.00 63 990.0
20221208064301 53 225 4.0 9.0 0.00 0.00 0.00 64 991.0
20221208054241 53 207 3.0 9.0 0.00 0.00 0.00 66 992.0
20221208044219 51 0 2.0 9.0 0.00 0.00 0.00 75 993.0
20221208034159 51 322 2.0 9.0 0.00 0.00 0.00 75 994.0
20221208024139 50 332 2.0 9.0 0.00 0.00 0.00 80 994.0
20221208014119 50 265 1.0 9.0 0.00 0.00 0.00 82 994.0
20221208004059 50 270 3.0 9.0 0.00 0.00 0.00 83 993.0
20221207234039 50 306 3.0 9.0 0.00 0.00 0.00 73 992.0
20221207224019 50 277 3.0 9.0 0.00 0.00 0.00 71 992.0
20221207213957 51 225 4.0 9.0 0.00 0.00 0.00 69 992.0
20221207203937 51 0 4.0 9.0 0.00 0.00 0.00 69 992.0
20221207193915 50 315 4.0 9.0 0.00 0.00 0.00 78 992.0
20221207183855 50 309 1.0 9.0 0.00 0.00 0.00 78 992.0
20221207173835 50 324 1.0 9.0 0.00 0.00 0.00 78 992.0
20221207163815 50 346 6.0 9.0 0.00 0.00 0.00 77 993.0
20221207153802 50 320 4.0 9.0 0.00 0.00 0.00 76 992.0
20221207143733 51 41 3.0 9.0 0.00 0.00 0.00 73 992.0